www.pogodaiklimat.ru

Погода и климат >> Архив погоды >> Испания >> Уэльва


ПОГОДА в Уэльве

  • Прогноз погоды в Уэльве
  • Монитор погоды в Уэльве

АРХИВ ПОГОДЫ в Уэльве

Время (UTC), дата Ветер
(напр.,м/с)
 
Видим.   Явления Облачность Т
(С)
Тd
(С)
f
(%)
Тe
(С)
Тes
(С)
Комфортность P
(гПа)
Po
(гПа)
Тmin
(С)
Tmax
(С)
R
(мм)
R24
(мм)
S
(см)
22 15.07 Ю 2 12 км н/о +20.9 +17.3 80 +26 +26 душно 1013.6 1011.3
23 15.07 ЮЗ 1 15 км н/о +20.8 +17.2 80 +26 +26 душно 1013.6 1011.3
00 16.07 З 3 20 км н/о +22.0 +16.9 73 +26 +26 душно 1013.4 1011.1
01 16.07 З 3 19 км н/о +21.6 +16.5 73 +25 +25 комфорт 1013.1 1010.8
02 16.07 З 2 18 км н/о +20.5 +16.5 78 +24 +24 комфорт 1012.8 1010.5
03 16.07 З 1 17 км н/о +19.8 +16.2 80 +23 +23 комфорт 1012.9 1010.6
04 16.07 З 2 16 км н/о +19.2 +16.1 82 +21 +21 комфорт 1013.1 1010.8
05 16.07 СЗ 2 16 км н/о +18.8 +16.0 84 +20 +20 1013.4 1011.0
06 16.07 СЗ 3 8000 м дымка ясно +18.5 +15.9 85 +20 +20 1013.7 1011.3 +18.3
07 16.07 СЗ 2 14 км н/о +19.9 +16.3 80 +23 +23 комфорт 1014.2 1011.9
08 16.07 С 2 16 км н/о +21.9 +16.6 72 +26 +26 душно 1014.4 1012.1
09 16.07 С 2 8000 м мгла ясно +23.7 +16.7 65 +27 +38 жарко 1014.5 1012.2
10 16.07 С 2 20 км н/о +25.9 +17.0 58 +30 +30 душно 1014.2 1011.9
11 16.07 Ю 3 20 км н/о +28.3 +17.5 52 +32 +32 душно 1014.2 1011.9
12 16.07 Ю 5 16 км н/о +27.8 +17.9 55 +32 +32 душно 1014.1 1011.8
13 16.07 Ю 6 20 км н/о +27.1 +17.8 57 +32 +32 очень
душно
1014.3 1012.0
14 16.07 ЮЗ 5 19 км н/о +27.2 +17.9 57 +32 +32 очень
душно
1014.0 1011.7
15 16.07 Ю 5 20 км н/о +26.8 +17.0 55 +31 +31 душно 1013.8 1011.5
16 16.07 Ю 5 20 км н/о +26.1 +17.2 58 +30 +30 душно 1013.3 1011.0
17 16.07 ЮЗ 5 20 км н/о +25.7 +17.4 60 +30 +30 душно 1013.2 1010.9
18 16.07 ЮЗ 5 20 км н/о +24.3 +18.0 68 +29 +29 душно 1013.1 1010.8 +28.6
19 16.07 ЮЗ 5 20 км н/о +22.7 +17.6 73 +28 +28 душно 1013.2 1010.9
20 16.07 ЮЗ 4 20 км н/о +21.7 +16.9 74 +26 +26 душно 1013.3 1011.0
21 16.07 Ю 2 17 км н/о +21.1 +17.1 78 +25 +25 комфорт 1014.1 1011.8
22 16.07 Ю 2 13 км н/о +20.6 +17.2 81 +25 +25 комфорт 1014.3 1012.0
23 16.07 Ю 2 15 км н/о +20.5 +17.7 84 +25 +25 комфорт 1014.6 1012.3
00 17.07 З 2 15 км н/о +20.2 +17.2 83 +24 +24 комфорт 1014.6 1012.3
01 17.07 СЗ 2 16 км н/о +20.1 +16.1 78 +24 +24 комфорт 1014.5 1012.2
02 17.07 СЗ 2 14 км н/о +19.3 +16.1 82 +22 +22 комфорт 1014.4 1012.0
03 17.07 СЗ 2 13 км н/о +18.8 +15.8 83 +21 +21 комфорт 1014.2 1011.8
04 17.07 СЗ 2 14 км н/о +18.6 +15.8 84 +20 +20 1014.5 1012.1
05 17.07 СЗ 2 13 км н/о +18.1 +15.5 85 +19 +19 1014.6 1012.2
06 17.07 З 1 13 км н/о +18.1 +15.7 86 +19 +20 1015.1 1012.7 +17.8
07 17.07 С 2 14 км н/о +19.5 +15.8 79 +22 +22 комфорт 1015.4 1013.0
08 17.07 С 2 17 км н/о +21.4 +15.9 71 +25 +25 комфорт 1015.8 1013.5
09 17.07 С 2 8000 м мгла 3/3 300 м
[Cu hum]
+23.1 +16.4 66 +28 +35 душно 1016.0 1013.7
10 17.07 ЮВ 3 19 км н/о +25.1 +16.8 60 +29 +29 душно 1016.4 1014.1
11 17.07 Ю 2 18 км н/о +26.1 +16.6 56 +30 +30 душно 1016.1 1013.8
12 17.07 Ю 5 6000 м мгла 1/1 300 м
[Cu hum]
+27.2 +17.4 55 +31 +40 душно 1016.0 1013.7
13 17.07 Ю 5 13 км н/о +27.5 +17.7 55 +32 +32 очень
душно
1015.8 1013.5
14 17.07 Ю 6 14 км н/о +26.8 +17.3 56 +31 +31 душно 1015.5 1013.2
15 17.07 ЮЗ 5 17 км н/о +26.0 +17.4 59 +30 +30 душно 1015.2 1012.9
16 17.07 ЮЗ 6 18 км н/о +25.6 +17.3 60 +30 +30 душно 1014.8 1012.5
17 17.07 ЮЗ 5 19 км н/о +24.7 +16.9 62 +28 +28 душно 1014.5 1012.2
18 17.07 ЮЗ 5 18 км н/о +23.6 +16.6 65 +27 +27 жарко 1014.3 1012.0 +27.9
19 17.07 ЮЗ 5 16 км н/о +23.1 +16.6 67 +28 +28 душно 1014.2 1011.9
20 17.07 ЮЗ 3 15 км н/о +22.2 +17.1 73 +27 +27 душно 1014.4 1012.1
21 17.07 З 3 15 км н/о +21.9 +17.1 74 +26 +26 душно 1015.0 1012.7
22 17.07 Ю 2 14 км н/о +21.6 +17.2 76 +26 +26 душно 1015.2 1012.9
23 17.07 В 1 13 км н/о +21.0 +16.8 77 +26 +26 душно 1015.3 1013.0
00 18.07 ЮВ 1 8000 м н/о +20.5 +17.1 81 +25 +25 комфорт 1015.3 1013.0
01 18.07 штиль 0 12 км н/о +19.8 +16.8 83 +22 +22 комфорт 1014.9 1012.6
02 18.07 СЗ 2 18 км н/о +20.2 +15.6 75 +24 +24 комфорт 1014.5 1012.2
03 18.07 С 2 20 км н/о +20.2 +15.4 74 +24 +24 комфорт 1014.7 1012.4
04 18.07 С 2 16 км н/о +19.1 +15.0 77 +21 +21 комфорт 1014.8 1012.4
05 18.07 С 2 12 км н/о +18.3 +15.5 84 +19 +19 1014.8 1012.4
06 18.07 С 3 16 км н/о +18.7 +14.6 77 +20 +20 1015.0 1012.6 +18.2
07 18.07 С 3 18 км н/о +19.6 +14.8 74 +22 +22 комфорт 1015.4 1013.0
08 18.07 С 3 19 км н/о +21.6 +15.2 67 +25 +25 комфорт 1015.7 1013.4
09 18.07 С 2 8000 м мгла ясно +24.0 +15.8 60 +27 +38 жарко 1015.4 1013.1
10 18.07 В 2 16 км н/о +26.6 +17.7 58 +31 +31 душно 1015.4 1013.1
11 18.07 ЮВ 2 16 км н/о +28.9 +18.1 52 +34 +34 очень
душно
1015.1 1012.8
12 18.07 ЮЗ 4 9000 м мгла ясно +30.9 +18.3 47 +36 +50 очень
душно
1014.5 1012.2
13 18.07 Ю 5 17 км н/о +31.2 +18.5 47 +36 +36 очень
душно
1014.0 1011.7
14 18.07 ЮЗ 5 13 км н/о +31.3 +18.3 46 +36 +36 очень
душно
1013.4 1011.1
15 18.07 ЮЗ 5 20 км н/о +29.7 +17.8 49 +34 +34 очень
душно
1013.0 1010.7
16 18.07 ЮЗ 5 18 км н/о +30.2 +17.0 45 +34 +34 очень
душно
1012.3 1010.0
17 18.07 ЮЗ 6 20 км н/о +27.7 +17.5 54 +32 +32 очень
душно
1012.0 1009.7
18 18.07 ЮЗ 5 20 км н/о +27.5 +17.7 55 +32 +32 очень
душно
1011.9 1009.6 +32.0
19 18.07 ЮЗ 5 20 км н/о +25.4 +17.3 61 +29 +29 душно 1012.0 1009.7
20 18.07 ЮЗ 2 19 км н/о +24.9 +17.4 63 +29 +29 душно 1012.1 1009.8
21 18.07 ЮЗ 2 19 км н/о +24.0 +17.3 66 +28 +28 душно 1012.3 1010.0
22 18.07 В 2 17 км н/о +23.7 +17.9 70 +28 +28 душно 1012.8 1010.5
23 18.07 Ю 1 13 км н/о +22.6 +18.2 76 +28 +28 душно 1012.8 1010.5
00 19.07 ЮВ 1 15 км н/о +22.0 +18.0 78 +27 +27 душно 1012.9 1010.6
01 19.07 Ю 1 11 км н/о +21.4 +18.0 81 +26 +26 душно 1012.6 1010.3
02 19.07 СВ 1 12 км н/о +21.1 +17.9 82 +25 +25 комфорт 1012.4 1010.1
03 19.07 СВ 1 12 км н/о +20.9 +17.7 82 +26 +26 душно 1012.3 1010.0
04 19.07 СВ 1 13 км н/о +20.1 +16.5 80 +24 +24 комфорт 1012.2 1009.9
05 19.07 штиль 0 13 км н/о +19.8 +16.8 83 +22 +22 комфорт 1012.5 1010.2
06 19.07 СВ 2 5000 м мгла ясно +19.5 +15.2 76 +22 +22 комфорт 1012.7 1010.4 +19.5
07 19.07 С 1 13 км н/о +22.1 +16.8 72 +26 +26 душно 1013.1 1010.8
08 19.07 СВ 2 15 км н/о +25.0 +18.0 65 +29 +29 душно 1013.1 1010.8
09 19.07 СВ 2 9000 м мгла ясно +27.8 +17.0 52 +32 +42 душно 1013.0 1010.7
10 19.07 СЗ 1 19 км н/о +31.0 +16.6 42 +34 +34 душно 1012.6 1010.3
11 19.07 ЮВ 2 19 км н/о +33.5 +17.2 38 +37 +37 очень
душно
1012.0 1009.8
12 19.07 З 3 10 км ясно +35.4 +16.2 32 +38 +56 опасность
солнечного
удара
1011.6 1009.4
13 19.07 ЮЗ 5 20 км н/о +35.7 +16.0 31 +38 +38 очень
душно
1011.1 1008.9
14 19.07 ЮЗ 6 20 км н/о +34.8 +15.7 32 +37 +37 очень
душно
1010.5 1008.3
15 19.07 ЮЗ 6 19 км н/о +33.4 +16.7 37 +36 +36 очень
душно
1010.2 1008.0
16 19.07 ЮЗ 5 20 км н/о +33.5 +15.9 35 +36 +36 очень
душно
1010.0 1007.8
17 19.07 З 6 20 км н/о +33.1 +15.6 35 +35 +35 душно 1009.7 1007.5
18 19.07 ЮЗ 5 20 км н/о +31.7 +15.2 37 +34 +34 душно 1009.7 1007.5 +35.9
19 19.07 ЮЗ 3 20 км н/о +29.9 +15.6 42 +33 +33 душно 1010.0 1007.7
20 19.07 Ю 3 20 км н/о +27.0 +15.4 49 +30 +30 душно 1010.2 1007.9
21 19.07 Ю 4 20 км н/о +25.5 +16.9 59 +29 +29 душно 1010.7 1008.4
22 19.07 ЮЗ 3 17 км н/о +25.6 +17.3 60 +30 +30 душно 1011.3 1009.0
23 19.07 ЮЗ 3 13 км н/о +25.1 +17.8 64 +29 +29 душно 1011.7 1009.4
00 20.07 ЮЗ 3 12 км н/о +25.3 +17.7 63 +30 +30 душно 1012.2 1009.9
01 20.07 ЮЗ 4 15 км н/о +25.5 +17.2 60 +29 +29 душно 1012.4 1010.1
02 20.07 З 5 19 км н/о +25.2 +16.1 57 +29 +29 душно 1012.6 1010.3
03 20.07 СЗ 4 20 км н/о +23.3 +15.1 60 +27 +27 душно 1012.6 1010.3
05 20.07 СЗ 4 20 км н/о +21.7 +13.3 59 +24 +24 комфорт 1012.7 1010.4
06 20.07 СЗ 2 20 км н/о +21.3 +13.2 60 +24 +24 комфорт 1013.2 1010.9 +21.2
07 20.07 СЗ 2 20 км н/о +22.3 +13.4 57 +25 +25 комфорт 1013.6 1011.3
08 20.07 СЗ 2 20 км н/о +24.3 +14.1 53 +27 +27 жарко 1014.0 1011.7
09 20.07 СЗ 3 20 км н/о +26.6 +14.7 48 +29 +29 жарко 1013.9 1011.6
10 20.07 СЗ 3 20 км н/о +29.4 +15.1 42 +32 +32 душно 1014.0 1011.7
11 20.07 З 3 20 км н/о +32.4 +15.0 35 +34 +34 очень
жарко
1014.0 1011.7
12 20.07 З 4 12 км н/о +34.2 +15.1 32 +36 +36 душно 1013.6 1011.4
13 20.07 З 4 20 км н/о +35.8 +13.9 27 +37 +37 душно 1013.2 1011.0
14 20.07 ЮЗ 6 20 км н/о +36.4 +17.1 32 +39 +39 очень
душно
1012.9 1010.7
15 20.07 ЮЗ 7 20 км н/о +32.4 +17.5 41 +36 +36 очень
душно
1012.7 1010.5
16 20.07 ЮЗ 7 20 км н/о +31.3 +16.9 42 +35 +35 очень
душно
1012.6 1010.3
17 20.07 ЮЗ 7 20 км н/о +30.8 +15.2 39 +33 +33 душно 1012.3 1010.0
18 20.07 ЮЗ 6 20 км н/о +30.2 +15.1 40 +33 +33 душно 1012.3 1010.0 +37.0
19 20.07 ЮЗ 5 20 км н/о +30.3 +15.2 40 +33 +33 душно 1012.5 1010.2
20 20.07 З 5 20 км н/о +29.8 +14.7 40 +32 +32 душно 1012.8 1010.5
21 20.07 З 4 20 км н/о +29.6 +12.1 34 +30 +30 жарко 1013.7 1011.4
22 20.07 З 4 20 км н/о +29.4 +13.2 37 +31 +31 жарко 1014.2 1011.9
23 20.07 СЗ 4 20 км н/о +29.0 +15.5 44 +32 +32 душно 1014.7 1012.4
00 21.07 СЗ 3 20 км н/о +28.6 +16.2 47 +32 +32 душно 1015.0 1012.7
01 21.07 СЗ 4 20 км н/о +27.3 +15.6 49 +30 +30 душно 1015.1 1012.8
02 21.07 СЗ 3 20 км н/о +25.5 +15.2 53 +28 +28 жарко 1015.1 1012.8
03 21.07 СЗ 2 20 км н/о +24.5 +14.3 53 +27 +27 жарко 1015.5 1013.2
04 21.07 СЗ 3 20 км н/о +23.7 +13.0 51 +26 +26 жарко 1015.8 1013.5
05 21.07 СЗ 3 20 км н/о +22.3 +13.6 58 +25 +25 комфорт 1015.8 1013.5
06 21.07 С 2 20 км н/о +21.7 +13.1 58 +24 +24 комфорт 1016.0 1013.7 +21.7
07 21.07 С 2 20 км н/о +22.7 +12.9 54 +26 +26 жарко 1016.4 1014.1
08 21.07 С 3 20 км н/о +25.0 +13.5 49 +27 +27 жарко 1016.6 1014.3
09 21.07 С 2 20 км н/о +28.2 +14.1 42 +30 +30 жарко 1016.5 1014.2
10 21.07 З 2 20 км н/о +31.3 +14.0 35 +33 +33 жарко 1016.6 1014.3
11 21.07 Ю 6 17 км н/о +30.9 +18.9 49 +36 +36 очень
душно
1017.0 1014.7
12 21.07 Ю 6 16 км н/о +29.9 +19.9 55 +36 +36 очень
душно
1017.1 1014.8
13 21.07 Ю 6 19 км н/о +30.4 +20.0 54 +37 +37 очень
душно
1016.9 1014.6
14 21.07 Ю 5 20 км н/о +31.8 +18.4 45 +37 +37 очень
душно
1016.4 1014.1
15 21.07 ЮЗ 5 20 км н/о +31.9 +18.8 46 +37 +37 очень
душно
1015.9 1013.6
16 21.07 ЮЗ 5 20 км н/о +30.0 +18.1 49 +35 +35 очень
душно
1015.4 1013.1
17 21.07 ЮЗ 5 20 км н/о +28.7 +17.2 50 +33 +33 очень
душно
1015.1 1012.8
18 21.07 ЮЗ 4 20 км н/о +28.7 +15.9 46 +32 +32 душно 1015.1 1012.8 +32.6
19 21.07 ЮЗ 3 20 км н/о +28.2 +15.5 46 +31 +31 душно 1015.2 1012.9
20 21.07 Ю 2 20 км н/о +25.8 +15.8 54 +29 +29 душно 1015.4 1013.1
21 21.07 Ю 3 20 км н/о +24.6 +15.8 58 +28 +28 душно 1016.3 1014.0
22 21.07 Ю 3 20 км н/о +24.1 +16.6 63 +28 +28 душно 1017.0 1014.7
23 21.07 Ю 2 20 км н/о +24.0 +16.0 61 +27 +27 жарко 1017.5 1015.2
00 22.07 Ю 4 20 км н/о +25.2 +17.7 63 +29 +29 душно 1017.6 1015.3
01 22.07 ЮЗ 3 18 км н/о +25.7 +18.4 64 +30 +30 душно 1017.4 1015.1
02 22.07 ЮЗ 3 17 км н/о +24.9 +19.3 71 +30 +30 душно 1017.4 1015.1
03 22.07 ЮЗ 2 15 км н/о +24.7 +19.8 74 +30 +30 очень
душно
1017.1 1014.8
04 22.07 СВ 2 17 км н/о +22.4 +15.7 66 +26 +26 жарко 1017.1 1014.8
05 22.07 СВ 2 18 км н/о +21.7 +15.8 69 +25 +25 комфорт 1016.9 1014.6
06 22.07 СВ 2 15 км н/о +21.6 +15.9 70 +25 +25 комфорт 1017.0 1014.7 +21.3
07 22.07 СВ 1 16 км н/о +24.2 +17.2 65 +28 +28 душно 1017.2 1014.9
08 22.07 СЗ 1 15 км н/о +26.9 +17.9 58 +31 +31 душно 1017.7 1015.4
09 22.07 З 1 9000 м мгла ясно +29.1 +19.7 57 +35 +47 очень
душно
1017.5 1015.2
10 22.07 Ю 2 16 км н/о +31.1 +20.1 52 +38 +38 очень
душно
1017.6 1015.3
11 22.07 Ю 4 15 км н/о +32.2 +20.8 51 +39 +39 очень
душно
1017.3 1015.0
12 22.07 ЮЗ 3 9000 м мгла ясно +32.8 +20.7 49 +40 +56 опасность
солнечного
удара
1017.0 1014.8
13 22.07 ЮЗ 4 16 км н/о +33.5 +20.6 47 +40 +40 очень
душно
1016.5 1014.3
14 22.07 ЮЗ 5 17 км н/о +33.7 +20.1 45 +40 +40 очень
душно
1015.9 1013.7
15 22.07 ЮЗ 5 18 км н/о +33.9 +19.9 44 +40 +40 очень
душно
1015.2 1013.0
16 22.07 ЮЗ 5 18 км н/о +33.2 +20.0 46 +39 +39 очень
душно
1014.6 1012.4
17 22.07 ЮЗ 5 18 км н/о +32.4 +20.6 50 +39 +39 очень
душно
1014.1 1011.9
18 22.07 ЮЗ 4 18 км н/о +31.7 +20.0 50 +38 +38 очень
душно
1013.8 1011.6 +34.4
19 22.07 ЮЗ 6 15 км н/о +28.4 +20.7 63 +35 +35 очень
душно
1014.1 1011.8
20 22.07 ЮЗ 5 14 км н/о +26.8 +20.9 70 +34 +34 очень
душно
1014.5 1012.2
21 22.07 З 4 14 км н/о +26.2 +20.5 71 +33 +33 очень
душно
1015.4 1013.1
22 22.07 ЮЗ 4 14 км н/о +26.3 +20.6 71 +33 +33 очень
душно
1016.0 1013.7

 

Местоположение метеостанции Уэльва (Испания): широта 37.28 долгота -6.92 высота над уровнем моря 20 м.

В архиве по умолчанию представлена погода в Уэльве за последнюю неделю. Архивные данные за месяц целиком и за предыдущие месяцы, начиная с января 2011 года, Вы можете получить, выбрав интересующий диапазон дат из раскрывающегося списка и нажав кнопку "Ввод!".


*Определитесь, кто Вы:
робот инопланетянин человек

Внимание! Время в таблицах - всемирное. Для получения местного времени необходимо прибавить поправку, которая равна 1 ч.

Смотрите также архив погоды в соседних городах и на ближайших метеорологических станциях:

Погода в Эль-Ареносильо (Испания) (26 км)
Погода в Айямонте - Исла Канель (Испания) (43 км)
Погода в Алахар - Кабезо Молин (Испания) (69 км)
Погода в Севилье (Испания) (92 км)
Погода в Херес-де-ла-Фронтере (Испания) (96 км)
Погода в Фару (Португалия) (97 км)
Погода в Кадисской бухте (Испания) (105 км)
Погода в Сан-Фернандо (Испания) (110 км)
Погода в Херес-де-лос-Кабалье (Испания) (114 км)
Погода в Морон-де-ла-Фронтере (Испания) (116 км)

Пояснения к столбцам:

Ветер - указаны скорость ветра в м/с - средняя за 10 мин, порывы в срок и между сроками (в фигурных скобках) и направление, откуда дует ветер: С - северный, СВ - северо-восточный, В - восточный, ЮВ - юго-восточный, Ю - южный, ЮЗ - юго-западный, З - западный, СЗ - северо-западный.
Видимость - горизонтальная дальность видимости в метрах или километрах. При видимости от 1 до 10 км при отсутствии осадков обычно наблюдается дымка, при ухудшении видимости до 1 км и менее - туман. В сухую погоду видимость может ухудшаться дымом, пылью или мглою.
Явления - указаны атмосферные явления, наблюдавшиеся в срок или в последний час перед сроком; фигурными скобками обозначены явления, наблюдавшиеся между сроками (за 1-3 часа до срока); квадратными скобками обозначены град или гололедные отложения с указанием их диаметра в мм.
Облачность - указаны через наклонную черту общая и нижняя облачность в баллах и высота нижней границы облаков в метрах; квадратными скобками обозначены формы облаков: Ci - перистые, Cs - перисто-слоистые, Cc - перисто-кучевые, Ac - высококучевые, As - высокослоистые, Sc - слоисто-кучевые, Ns - слоисто-дождевые, Cu - кучевые, Cb - кучево-дождевые. Подробнее классификацию облаков см. в Атласе облаков (PDF).
T - Температура воздуха - температура, измеренная на высоте 2 м над землей.
Td - Температура точки росы - температура, при понижении до которой содержащийся в воздухе водяной пар достигнет насыщения.
f - Относительная влажность воздуха - влажноcть воздуха, измеренная на высоте 2 м над землей.
Te - Эффективная температура - температура, которую ощущает одетый по сезону человек в тени. Характеристика душности погоды. При расчете учитывается влияние влажности воздуха и скорости ветра на теплоощущения человека.
Tes - Эффективная температура на солнце - температура, которую ощущает человек, с поправкой на солнечный нагрев. Характеристика знойности погоды. Зависит от высоты солнца над горизонтом, облачности и скорости ветра. Ночью, в пасмурную погоду, а также при ветре 12 м/с и более поправка равна нулю.
P - Атмосферное давление - приведенное к уровню моря атмосферное давление.
Po - Атмосферное давление - измеренное на уровне метеостанции атмосферное давление.
Tmin - Минимальная температура - минимум температуры воздуха на высоте 2 м над землей.
Tmax - Максимальная температура - максимум температуры воздуха на высоте 2 м над землей.
R - Количество осадков - Количество выпавших осадков за период времени, мм. При наведении курсора мыши на число - период времени, за который выпало указанное количество осадков.
R24 - Количество осадков - Количество выпавших осадков за 24 часа, мм.
S - Снежный покров - Высота снежного покрова, см. При наведении курсора мыши на число - состояние снежного покрова и степень покрытия местности в баллах.